Location: Castle Hill Houses
(40.8186°N, 73.8497°W)
Time: 19:47:59
(UTC+00:00)

Cosmos 1703 - Pass Details

Date: 26 January 2020
Orbit: 523 x 541 km, 82.5° (Epoch: 27 February)

Event Time Altitude Azimuth Distance (km) Brightness Sun altitude
Exits shadow 10:30:34 31° 336° (NNW) 948 4.2 -19.1°
Maximum altitude 10:32:15 64° 265° (W) 595 3.1 -18.7°
Drops below altitude 10° 10:36:07 10° 184° (S) 1,772 6.0 -18.0°
Sets 10:38:15 0° 181° (S) 2,654 6.9 -17.6°
